Location: Dlouh� Pole
(49.7830°N, 14.7354°E)
Time: 10:08:52
(UTC+00:00)

Daily predictions for brighter satellites

Satellite Brightness Start Highest point End
(mag) Time Altitude Azimuth Time Altitude Azimuth Time Altitude Azimuth
CZ-4C R/B 3.5 19:22:15 10° WSW 19:27:15 47° NW 19:33:22 10° NE
Cosmos 2058 3.0 19:28:40 10° S 19:32:46 60° E 19:36:55 10° NNE
deb Kosmos-1763 4.2 19:29:45 10° SSW 19:33:16 75° WNW 19:36:48 10° NNE
OPS 8737 4.4 19:33:03 10° NW 19:36:04 80° SW 19:39:52 10° SE
USA-17 4.3 19:34:40 10° SW 19:38:27 71° SE 19:41:34 10° NE
Cosmos 1825 2.3 19:36:04 10° SSW 19:39:48 78° W 19:43:35 10° N
NOSS 7 (H) 4.1 19:37:00 10° SW 19:40:23 90° WSW 19:43:19 10° NE
Meteor 2-2 Rocket 4.4 19:34:55 10° NNW 19:40:49 83° W 19:46:33 10° S
Cosmos 1076 Rocket 4.3 19:37:20 10° SSE 19:41:16 35° E 19:45:14 10° NNE
Cosmos 2098 Rocket 3.2 19:41:53 10° SSE 19:44:28 28° E 19:47:19 10° NNE
Cosmos 2360 4.3 19:38:58 10° NNW 19:44:42 85° WSW 19:50:23 10° SSE
Resurs 01 Rocket 2.0 19:40:35 10° S 19:44:59 68° WSW 19:49:28 10° NNW
Cosmos 1437 Rocket 4.3 19:42:21 10° NNW 19:45:51 35° W 19:49:23 10° SSW
MetOp-B 4.2 19:44:36 10° SSE 19:49:58 90° ENE 19:55:23 10° NNW
SL-16 R/B 3.6 19:45:47 10° NNW 19:50:38 27° NE 19:55:25 10° ESE
OBJECT-B 3.9 19:50:01 10° WSW 19:51:17 12° W 19:52:31 10° WNW
SPOT 1/Viking Rocket 3.6 19:46:52 10° SSE 19:52:03 83° ENE 19:57:18 10° NNW
USA 234 3.9 19:46:51 10° E 19:53:13 56° NNE 19:59:37 10° WNW
BREEZE-M DEB (TANK) 3.3 19:42:15 10° WSW 19:53:43 84° S 19:57:07 10° E
USA 245 4.0 19:54:53 10° SSE 20:00:30 83° ENE 20:05:10 10° NNW
BREEZE-M DEB (TANK) 2.4 19:58:55 10° W 20:01:44 62° SSW 20:08:33 10° ESE
RESURS DK-1 3.0 19:57:58 10° S 20:01:45 35° ESE 20:05:33 10° NE
Cosmos 44 Rocket 3.5 19:58:11 10° SSW 20:03:15 56° ESE 20:08:24 10° NE
CZ-3B R/B 4.5 19:40:31 10° W 20:04:13 64° N 20:09:16 10° ENE
Cosmos 1271 Rocket 4.0 20:01:14 10° N 20:04:43 28° ENE 20:07:34 13° SE
SPOT 5 2.9 20:07:14 13° SE 20:10:56 55° ENE 20:15:11 10° N
Cosmos 783 Rocket 4.5 20:06:56 10° SSW 20:12:08 87° ESE 20:17:22 10° NNE
ARIANE 5 R/B 2.7 20:08:22 12° SSE 20:12:29 71° ENE 20:16:58 10° N
CZ-2C R/B 3.7 20:09:34 10° NNE 20:14:12 82° ESE 20:18:42 10° SSW
Cosmos 1933 3.8 20:10:51 10° N 20:14:48 46° ENE 20:17:46 16° SE
Meteor 2-15 4.5 20:09:51 10° N 20:15:57 74° ENE 20:21:34 12° SSE
Cosmos 1697 Rocket 3.5 20:11:19 10° NW 20:16:43 46° WSW 20:22:04 10° S
Cosmos 1633 2.5 20:13:57 10° S 20:17:33 86° E 20:21:12 10° N
ERS-2 4.2 20:15:49 10° N 20:19:02 29° WNW 20:22:14 10° SW
JB-3 4.4 20:15:38 10° NNE 20:19:49 83° ESE 20:23:57 10° SSW
ISS -3.7 20:19:32 10° WNW 20:22:55 78° NNE 20:25:52 13° E
Cosmos 2221 3.7 20:19:32 10° NNW 20:23:33 39° W 20:27:33 10° SSW
Cosmos 2278 3.7 20:18:24 10° NNW 20:24:06 86° WSW 20:28:45 16° SSE
Cosmos 2082 Rocket 2.1 20:20:47 10° SSW 20:26:22 74° ESE 20:32:03 10° NNE
Cosmos 371 Rocket 3.3 20:21:55 10° NNW 20:26:46 88° ENE 20:30:30 17° SSE
CARTOSAT-1 3.7 20:23:15 12° S 20:27:13 72° WSW 20:31:34 10° NNW
Cosmos 1833 Rocket 3.4 20:25:14 10° SW 20:30:47 59° WNW 20:36:24 10° NNE
Meteor 2-15 Rocket 4.4 20:25:31 10° N 20:31:38 76° ENE 20:36:41 15° SSE
Terra 1.9 20:29:10 17° SSE 20:32:45 65° ENE 20:37:30 10° N
Cosmos 2333 Rocket 4.3 20:29:40 10° N 20:33:30 18° NE 20:37:19 10° ENE
ATLAS 5 CENTAUR R/B 4.4 20:30:38 10° NNW 20:34:04 19° NNE 20:37:53 10° NE
Gbstr 26 Del rocket 2.8 20:30:41 10° WNW 20:34:26 75° NNE 20:38:22 11° E
Gblst 52 Del rocket 4.5 20:28:53 10° WSW 20:34:48 86° NNW 20:41:36 10° ENE
BREEZE-M DEB (TANK) 3.9 20:31:46 10° SW 20:35:56 58° SE 20:51:42 10° ENE
Cosmos 1092 Rocket 4.0 20:30:54 10° S 20:37:02 68° E 20:43:18 10° NNE
NOSS 3-4 (A) 4.2 20:34:20 10° WSW 20:40:08 55° NW 20:46:28 10° NE
NOSS 3-4 (C) 4.2 20:34:26 10° WSW 20:40:13 55° NW 20:46:34 10° NE
Cosmos 773 Rocket 4.3 20:35:21 10° SSW 20:40:33 68° WNW 20:45:44 10° NNE
Cosmos 2360 Rocket 3.6 20:36:26 10° NNW 20:41:21 30° NE 20:46:03 11° ESE
USA 276 2.0 20:39:12 10° W 20:42:22 86° N 20:44:46 16° E
ATLAS 2AS CENTAUR R/B 3.2 20:41:11 10° SW 20:49:08 80° NW 20:56:51 10° NE
Cosmos 1766 Rocket 4.1 20:50:20 23° SSE 20:52:35 42° E 20:56:45 10° NNE
Meteor 2-3 Rocket 3.7 20:47:27 12° S 20:52:38 78° E 20:58:21 10° NNE
COSMOS 2406 4.4 20:47:31 10° SW 20:52:59 46° NW 20:58:30 10° NNE
ERBS 3.8 20:51:13 10° W 20:53:49 22° SW 20:54:49 19° SSW
Cosmos 2026 Rocket 4.0 20:51:04 14° S 20:56:40 77° E 21:02:59 10° NNE
Cosmos 1812 3.4 20:53:54 10° N 20:57:34 40° ENE 20:59:11 26° SE
Cosmos 1782 2.7 20:54:43 10° N 20:58:46 82° E 21:00:54 27° SSE
USA 267 3.3 20:54:21 10° ENE 21:00:48 57° SE 21:07:14 10° SW
GP-B 3.4 20:57:10 10° N 21:01:35 64° W 21:05:05 16° SSW
Cosmos 2151 3.4 20:57:41 11° SSW 21:01:45 61° WNW 21:05:59 10° N
Cosmos 1680 Rocket 4.2 20:59:27 23° SSE 21:01:57 36° ESE 21:06:45 10° NE
Cosmos 332 Rocket 3.9 20:57:05 10° NNW 21:01:58 75° WSW 21:04:54 24° SSE
Cosmos 1980 Rocket 3.2 20:57:30 10° NW 21:02:39 38° WSW 21:06:48 15° S
Cosmos 1328 Rocket 3.8 20:59:14 10° N 21:03:39 58° ENE 21:05:52 27° SE
ERS-1 Rocket 3.6 21:00:53 16° S 21:04:47 50° W 21:09:42 10° NNW
ATLAS 3B R/B 3.1 20:59:11 10° NW 21:06:08 58° WSW 21:11:03 21° SSE
Cosmos 2322 Rocket 2.4 21:04:44 10° NNW 21:10:23 65° ENE 21:13:48 24° SE
Cosmos 1151 Rocket 3.0 21:10:47 10° N 21:15:09 86° W 21:17:20 29° S
Meteor 2-6 Rocket 4.2 21:13:24 10° N 21:18:53 69° ENE 21:21:47 28° SSE
Cosmos 1538 Rocket 4.4 21:14:49 10° SW 21:20:00 62° WNW 21:25:10 10° NNE
BREEZE-M DEB (TANK) 2.5 21:18:03 10° W 21:19:23 36° WSW 21:19:23 36° WSW
Okean 3 Rocket 3.5 21:20:47 28° S 21:23:09 80° E 21:27:40 10° NNE
Meteor 2-21 4.5 21:19:40 23° S 21:23:36 69° E 21:29:45 10° NNE
Cosmos 158 Rocket 4.1 21:19:19 10° SSW 21:24:26 76° WNW 21:29:44 10° NNE
Cosmos 2292 Rocket 4.5 21:23:04 22° S 21:26:55 85° E 21:34:19 10° N
Cosmos 2237 4.3 21:23:34 10° NNW 21:29:17 70° ENE 21:32:28 27° SE
Meteor 1-27 Rocket 4.4 21:24:39 10° N 21:29:59 43° ENE 21:32:53 24° SE
Cosmos 1553 Rocket 3.9 21:25:07 10° N 21:31:14 83° W 21:34:50 26° S
COSMOS 2428 4.4 21:26:39 10° NNW 21:31:27 27° NE 21:36:14 10° E
H-2A R/B 3.5 21:27:33 10° NNE 21:31:45 78° WNW 21:34:07 25° SSW
SL-16 R/B 2.3 21:29:35 10° NNW 21:35:15 70° WSW 21:38:08 30° S
USA 234 3.2 21:31:41 23° SE 21:36:07 77° SW 21:42:43 10° WNW
Cosmos 1655 Rocket 4.2 21:33:14 27° SSE 21:36:36 57° E 21:42:51 10° NNE
Cosmos 1500 Rocket 4.4 21:37:07 30° ESE 21:38:12 35° E 21:42:14 10° NNE
Cosmos 1624 Rocket 4.0 21:33:21 10° NNW 21:38:35 77° ENE 21:41:01 32° SSE
Cosmos 2219 Rocket 3.5 21:33:37 10° NNW 21:38:39 32° NE 21:42:49 14° ESE
RESURS DK-1 4.2 21:36:04 10° WSW 21:39:48 31° NW 21:43:34 10° NNE
Cosmos 1271 Rocket 4.4 21:37:13 10° NNW 21:40:38 28° W 21:42:41 18° SW
Cosmos 2266 Rocket 4.2 21:39:18 29° SSE 21:42:15 55° E 21:48:18 10° NNE
Cosmos 292 Rocket 4.3 21:37:43 10° NNW 21:42:22 50° ENE 21:44:32 28° ESE
Meteor 1-10 Rocket 4.1 21:40:53 10° NNW 21:46:31 86° E 21:49:09 33° SSE
Spot 4 3.9 21:45:55 35° SSE 21:47:54 73° ENE 21:52:43 10° N
Cosmos 2228 Rocket 3.8 21:47:01 10° N 21:51:14 42° ENE 21:52:40 32° ESE
COSMOS 2455 4.2 21:52:02 21° ESE 21:52:53 21° ESE 21:57:16 10° ENE
Cosmos 1420 Rocket 4.1 21:48:33 10° NNW 21:53:53 71° ENE 21:56:18 33° SE
Cosmos 1743 Rocket 3.9 21:54:56 40° SE 21:56:07 52° E 22:00:28 10° NNE
Meteor 2-16 Rocket 4.4 21:53:50 30° S 21:57:00 78° E 22:03:06 10° NNE
S3M 4.1 21:52:04 10° NNW 21:58:26 78° W 22:01:50 30° S
Cosmos 1408 Rocket 3.5 21:57:11 38° SSW 21:58:50 84° W 22:03:13 10° N
ISS -2.5 21:56:31 10° W 21:58:48 29° WSW 21:58:48 29° WSW
Cosmos 1452 Rocket 4.1 22:03:10 10° NNW 22:08:18 51° ENE 22:10:51 28° ESE
COBE Rocket 3.9 22:06:56 39° S 22:08:34 66° W 22:13:13 10° NNW
Terra 3.9 22:08:03 11° SW 22:10:57 18° W 22:14:13 10° NW
Cosmos 2082 Rocket 4.3 22:06:22 10° W 22:11:04 26° NW 22:15:48 10° NNE
NOSS 3-1 (C) 4.1 22:08:10 10° NW 22:15:26 75° NE 22:21:57 19° SE
IRIDIUM 104 4.3 22:11:20 10° N 22:16:35 89° W 22:18:36 39° S
Cosmos 2056 Rocket 3.9 22:12:11 10° NNW 22:17:27 55° WSW 22:19:23 36° SSW
Cosmos 1515 Rocket 4.2 22:13:21 10° NNW 22:17:38 46° W 22:19:04 33° SW
NOSS 2-1 (E) 3.6 22:19:06 39° E 22:19:06 39° E 22:21:43 10° NE
USA 276 3.7 22:15:26 10° W 22:17:00 25° W 22:17:00 25° W
Sich 1 3.7 22:17:56 36° ESE 22:18:45 40° E 22:22:51 10° NNE
Cosmos 2333 Rocket 2.4 22:13:16 10° NNW 22:18:55 66° ENE 22:21:43 30° SE
ATLAS 5 CENTAUR R/B 3.4 22:15:10 10° NW 22:20:02 38° NE 22:25:45 10° ESE
Gbstr 26 Del rocket 3.4 22:17:24 10° WNW 22:20:51 40° SW 22:20:51 40° SW
Cosmos 1833 4.3 22:19:19 37° S 22:21:33 62° ESE 22:27:16 10° NE
Okean 1 4.5 22:19:30 10° N 22:23:10 32° ENE 22:24:11 28° ESE
IRIDIUM 114 4.4 22:20:29 10° N 22:25:43 75° W 22:27:43 39° SSW
Cosmos 2360 Rocket 2.3 22:20:12 10° NW 22:25:45 62° WSW 22:27:48 38° S
USA 229 DEB 4.3 22:19:34 10° NW 22:26:44 62° NE 22:33:46 12° ESE
USA 229 4.3 22:19:40 10° NW 22:26:49 61° NE 22:33:55 12° ESE
Cosmos 1174 3.2 22:24:16 10° NW 22:27:05 71° N 22:27:05 71° N
Geosat 4.4 22:25:11 27° ESE 22:27:46 57° NE 22:32:42 10° NNW
ALOS 2 2.5 22:26:42 50° S 22:27:50 82° WSW 22:32:15 10° NNW
Cosmos 2322 3.7 22:28:41 10° NNW 22:34:26 80° ENE 22:37:00 35° SE
SL-27 R/B 3.0 22:43:08 44° WSW 22:43:50 53° WNW 22:47:23 10° NNE
USA 267 3.6 22:37:26 10° ENE 22:43:55 66° NNW 22:50:24 10° WSW
Cosmos 1707 Rocket 3.7 22:39:40 10° N 22:44:00 65° ENE 22:45:02 48° SE
NOSS 3-1 (A) 4.2 22:39:52 10° NW 22:47:08 74° NE 22:54:39 14° SE
Cosmos 1331 Rocket 4.5 22:45:53 10° NNW 22:51:05 55° ENE 22:53:34 29° SE
Cosmos 2297 Rocket 4.1 22:49:53 13° ESE 22:51:19 15° E 22:54:18 10° ENE
Cosmos 546 4.5 22:50:47 60° SW 22:51:25 77° SSE 22:55:21 10° ENE
Cosmos 2084 3.2 22:51:07 56° SW 22:51:57 86° SE 22:56:10 10° NE
COSMOS 2487 2.8 22:52:30 52° E 22:52:30 52° E 22:55:30 10° NNE
Cosmos 2237 Rocket 3.5 22:47:24 10° NNW 22:52:38 36° NE 22:57:32 11° ESE
Cosmos 2322 Rocket 3.6 22:49:32 10° NW 22:53:56 24° WSW 22:55:35 21° SW
Cosmos 2285 Rocket 3.9 22:49:54 10° NNW 22:56:14 79° WSW 22:58:54 37° S
Cosmos 2315 Rocket 4.5 22:54:12 10° NNW 23:00:15 51° W 23:03:02 31° SSW
Cosmos 2227 Rocket 4.2 23:00:28 12° ESE 23:02:09 13° E 23:04:44 10° ENE
NOSS 2-1 (C) 3.4 23:02:14 45° W 23:02:52 54° NW 23:06:19 10° NE
Cosmos 1805 Rocket 3.9 23:02:34 41° SW 23:03:50 58° WNW 23:08:15 10° N
SAR-Lupe-2 3.4 23:01:22 10° NNE 23:04:58 74° ESE 23:05:06 73° SE
Meteor 2-4 Rocket 4.2 23:03:14 10° N 23:09:09 60° ENE 23:12:00 30° SE
NOSS 2-1 (D) 3.8 23:09:40 35° W 23:10:33 46° NW 23:13:57 10° NE
CZ-2D R/B 4.3 23:10:14 10° NE 23:13:04 14° E 23:15:47 10° ESE
USA 40 PKM 4.3 23:10:27 10° WNW 23:13:57 67° SW 23:14:20 61° S
PSLV R/B 3.9 23:11:05 10° NNE 23:15:51 66° ESE 23:17:06 46° SSE
SL-16 R/B 4.3 23:11:17 10° NNW 23:15:52 24° NE 23:20:26 10° E
COSMOS 2428 2.7 23:10:37 10° NNW 23:16:19 73° WSW 23:18:23 40° S
SL-16 R/B 4.3 23:16:18 10° WNW 23:18:17 12° W 23:19:59 10° WSW
Cosmos 1500 3.1 23:19:16 68° SSE 23:19:39 76° E 23:23:30 10° NNE
USA 234 4.2 23:19:01 26° SW 23:19:49 26° SW 23:25:12 10° WNW
Cosmos 1602 4.0 23:21:42 50° WSW 23:22:17 56° WNW 23:26:08 10° N
Cosmos 2219 Rocket 2.4 23:17:25 10° NW 23:22:53 55° WSW 23:24:30 41° SSW
Cosmos 1048 Rocket 3.9 23:23:23 42° SSW 23:25:09 86° WNW 23:30:19 10° NNE
Thor Agena Rocket 3.4 23:26:09 10° NNE 23:31:14 82° WNW 23:33:00 42° SSW
SL-08 ROCKET BODY 4.4 23:29:43 36° SSW 23:32:18 75° W 23:38:27 10° N
SL-08 R/B 4.5 23:31:53 36° SSW 23:34:38 80° W 23:40:52 10° N
Cosmos 494 Rocket 3.9 23:33:21 43° SSW 23:35:04 90° W 23:40:14 10° NNE
COSMOS 2455 2.8 23:35:08 32° SW 23:38:08 83° NW 23:44:12 10° NE
NOSS 0 Rocket 3.9 23:33:23 10° NNW 23:39:40 82° WSW 23:42:49 31° SSE
Cosmos 1302 Rocket 4.1 23:35:06 10° NNW 23:40:19 71° ENE 23:42:56 30° SE
Cosmos 1470 Rocket 3.5 23:40:37 53° S 23:41:35 79° E 23:45:56 10° NNE
Cosmos 1709 Rocket 4.5 23:38:52 29° SSE 23:41:56 53° E 23:48:05 10° NNE
Cosmos 1340 Rocket 3.3 23:45:19 40° SE 23:46:00 45° E 23:49:46 10° NNE
APEX 4.5 23:44:43 38° S 23:46:41 59° ESE 23:52:59 10° NE
Cosmos 1933 Rocket 3.8 23:47:27 44° SSE 23:48:40 62° E 23:53:06 10° NNE
Cosmos 2219 4.3 23:46:58 26° SE 23:49:05 34° ESE 23:54:11 10° NE
Cosmos 1745 Rocket 3.9 23:46:52 36° S 23:49:39 87° WNW 23:55:58 10° N
Cosmos 1666 Rocket 4.3 23:49:24 34° WSW 23:50:40 43° WNW 23:54:54 10° N
Cosmos 1633 Rocket 3.5 23:49:55 39° WSW 23:51:05 50° WNW 23:55:22 10° N
Okean 1-7 3.2 23:48:01 10° N 23:52:15 64° ENE 23:53:38 40° SE
Helios 1A 3.4 23:50:54 33° SE 23:52:34 59° ENE 23:56:44 10° N
